Location: *
(37.5724°S, 58.0067°E)
Time: 13:30:59
(UTC+00:00)

Lacrosse 5 - Pass Details

Date: 26 January 2021
Orbit: 715 x 724 km, 57.0° (Epoch: 03 March)

Event Time Altitude Azimuth Distance (km) Brightness Sun altitude
Rises 17:51:02 0° 318° (NW) 3,123 5.1 -23.8°
Reaches altitude 10° 17:53:24 10° 316° (NW) 2,211 4.3 -24.1°
Maximum altitude 17:58:30 82° 229° (SW) 741 1.9 -24.7°
Drops below altitude 10° 18:03:41 10° 140° (SE) 2,239 4.5 -25.3°
Sets 18:06:06 0° 138° (SE) 3,167 5.4 -25.6°
